Wind_Speed
13 15 13 12 12 11 10 10 10 11 12 10 9 8 6 4 3 3 3 3 5 6 5 6 8 7 8 8 7 7 6 5 5 6 3 2 4 6 3 2 2 2 2 1 1 0 1 1 1 1 1 1 1 2 2 1 1 2 2 3 3 4 5 6 6 7 7 8 8 8 9 10 10 11 11 12 12 11 12 13 14 14 14 14 14
11 14 14 12 12 11 11 11 11 11 10 8 7 6 5 4 3 3 3 1 3 4 4 4 6 7 7 8 8 7 7 6 7 8 4 1 2 6 5 4 4 4 3 3 3 3 2 1 1 1 1 1 1 1 1 1 2 2 3 4 5 5 6 6 7 8 8 9 9 10 10 10 10 11 11 10 10 11 12 13 14 15 15 15 15
13 14 14 13 13 12 12 11 10 9 8 6 5 4 4 3 3 4 3 2 3 3 4 4 5 7 7 7 7 7 6 6 8 9 7 3 1 4 7 7 6 5 5 4 4 4 3 3 3 3 3 3 2 2 2 3 3 4 4 5 6 6 7 8 8 9 9 10 10 10 10 10 10 9 9 10 10 12 13 14 15 15 15 15 14
14 14 13 13 13 13 12 10 10 8 7 6 5 4 4 3 4 4 4 4 3 2 3 5 4 6 8 7 6 7 4 3 7 9 8 5 1 1 6 7 7 7 6 5 5 5 4 3 3 4 4 3 3 3 3 4 4 5 6 6 7 8 8 8 9 9 9 9 9 10 10 9 9 8 9 9 10 11 12 13 14 15 15 14 13
14 13 12 11 12 12 10 9 9 8 6 6 5 5 4 4 3 3 3 4 3 2 3 5 5 4 8 8 6 7 6 4 7 8 9 8 4 2 3 7 8 8 7 7 6 4 4 3 3 4 4 4 3 3 4 5 5 6 7 7 8 8 8 8 8 8 8 8 8 8 8 8 8 8 8 8 9 11 12 12 12 12 12 12 12
13 11 10 10 9 9 9 8 7 7 6 5 4 3 3 3 2 1 1 3 3 1 1 6 5 3 6 8 6 5 6 7 7 8 9 9 7 5 2 5 5 6 6 7 8 6 4 3 4 4 4 3 3 4 5 5 6 7 8 8 8 8 8 8 8 8 8 8 8 8 8 8 8 7 7 8 10 11 12 13 12 12 13 13 14
11 10 10 9 8 8 8 8 7 6 5 4 4 3 3 3 1 1 3 0 3 1 2 4 3 3 5 8 7 4 5 7 7 8 7 7 8 7 4 2 3 2 3 4 7 8 5 4 4 4 4 3 3 4 6 6 7 8 8 9 9 8 8 7 8 8 8 9 9 9 9 9 8 7 7 8 10 11 13 13 13 14 14 15 15
9 9 8 7 8 8 8 7 6 5 4 3 4 2 3 4 3 2 5 3 1 1 3 2 4 5 4 7 6 3 8 5 5 9 7 7 9 8 7 4 2 1 3 2 3 6 6 5 3 4 4 3 4 5 6 7 7 8 8 8 8 7 7 7 7 8 8 9 9 9 9 9 8 7 7 8 10 11 13 13 13 14 14 15 14
8 7 6 6 6 7 8 6 4 5 3 3 5 3 3 2 3 4 5 4 4 2 3 4 6 8 7 9 4 2 6 2 1 7 7 6 7 8 10 7 6 4 3 5 1 3 4 5 4 4 3 3 5 6 7 7 8 8 7 7 7 7 6 6 6 7 8 8 9 9 9 9 8 8 7 8 9 11 12 13 14 15 15 15 15
6 5 5 5 5 7 7 5 4 5 2 3 5 4 2 1 3 4 4 3 5 4 1 4 5 7 8 9 4 2 4 3 5 6 7 7 5 10 12 7 6 5 4 7 3 1 1 2 2 3 4 5 6 7 7 8 9 9 7 6 6 6 5 5 6 7 8 8 9 9 9 9 9 9 8 8 9 11 12 13 15 16 17 17 16
5 5 5 5 6 7 6 4 5 3 2 3 3 3 3 3 3 3 3 3 5 5 3 3 2 3 7 9 4 3 5 5 5 2 4 7 5 8 10 7 7 5 5 8 4 1 1 2 2 1 3 5 6 7 8 8 9 9 8 7 5 5 5 5 6 7 8 9 9 9 9 9 10 9 9 9 9 10 12 13 14 16 17 19 19
6 4 4 5 6 6 5 5 4 2 1 2 3 3 4 4 4 3 3 4 6 5 3 3 1 4 6 9 6 3 4 3 4 2 2 7 5 5 7 10 9 7 7 8 7 4 3 2 3 5 2 3 5 6 6 6 8 8 7 7 6 5 6 6 6 7 8 9 9 9 10 10 10 10 10 10 10 10 11 12 14 16 17 19 20
7 5 3 4 7 6 5 6 4 2 2 3 4 4 2 3 2 4 5 6 8 5 3 1 5 3 1 6 7 5 5 5 6 7 7 8 6 4 7 12 10 8 7 7 9 7 4 3 1 3 4 5 5 4 5 4 6 8 7 7 6 6 6 6 7 8 9 9 9 9 10 10 10 10 10 10 10 10 11 12 14 16 17 19 21
7 6 5 5 7 5 4 5 4 3 2 3 2 2 1 1 2 4 5 7 8 4 3 2 1 7 7 5 8 7 5 6 8 9 10 9 8 4 6 10 11 11 7 6 10 8 5 4 4 3 2 5 5 4 6 5 4 7 7 7 7 6 6 6 7 8 9 9 9 10 10 11 11 10 10 10 10 10 11 13 14 15 17 18 20
7 7 6 6 7 6 5 4 4 3 1 1 1 1 1 1 3 3 5 8 6 2 3 3 6 3 7 2 4 5 3 7 10 8 7 9 9 7 6 8 11 11 7 6 11 11 6 4 3 3 3 1 1 3 7 5 4 7 8 9 8 7 6 6 7 8 9 9 9 10 10 10 11 11 11 10 10 10 11 12 14 15 16 18 19
8 8 7 6 7 8 7 5 4 3 2 1 0 1 1 1 2 2 5 10 6 1 2 5 5 5 1 1 1 1 0 4 7 6 2 5 9 8 5 7 11 7 8 9 11 11 8 6 6 6 4 2 2 1 2 4 4 6 8 10 9 8 7 7 8 9 10 11 10 10 10 10 11 11 11 11 11 11 11 12 13 15 15 17 19
9 8 8 7 6 7 8 7 4 3 3 1 1 2 1 1 2 2 4 9 9 6 3 1 2 5 4 2 3 1 1 4 5 2 3 6 6 8 3 6 11 5 7 9 9 7 8 8 7 6 5 3 2 1 3 4 3 5 7 9 10 9 9 8 9 11 12 13 12 12 11 11 11 11 12 12 12 11 11 11 13 14 15 16 17
10 9 8 9 7 7 8 7 5 4 4 2 1 1 1 2 2 2 4 6 9 9 7 2 3 0 1 5 4 2 2 3 4 2 4 8 3 5 2 5 11 6 5 7 7 9 12 13 8 4 6 6 2 3 6 5 3 6 8 10 10 9 9 9 10 12 13 14 14 14 13 12 11 12 12 12 12 12 12 11 12 13 14 15 16
11 10 9 9 8 7 7 6 5 6 4 2 2 2 2 1 1 1 3 4 6 11 10 5 0 4 2 4 3 2 3 1 2 2 2 5 7 2 2 5 8 8 9 8 5 7 10 11 10 7 9 7 2 1 3 3 4 9 10 10 10 9 10 10 11 13 13 14 15 15 14 13 13 12 13 13 13 13 12 12 12 12 14 15 15
11 11 9 10 9 7 7 5 5 6 5 3 3 3 2 2 1 1 3 3 4 8 9 8 6 3 1 3 3 1 2 2 3 1 2 1 5 4 3 3 1 3 3 6 3 6 7 5 5 7 8 6 3 1 2 4 8 12 12 10 9 9 10 12 13 13 13 14 15 15 14 14 13 13 13 13 13 13 13 13 12 12 13 15 14
11 11 10 10 10 9 9 7 5 5 5 4 5 4 3 3 2 3 3 2 4 6 6 7 10 6 3 4 7 6 5 3 4 5 3 1 2 3 5 10 5 5 7 5 1 6 6 3 2 3 3 3 3 1 3 6 8 12 12 10 9 10 12 13 13 13 14 15 15 14 13 13 14 14 14 13 13 13 13 13 13 12 12 14 14
11 11 11 10 10 10 9 8 6 5 5 5 4 5 3 3 4 4 3 2 2 4 5 5 7 7 5 3 5 7 8 7 2 1 1 2 1 2 4 8 4 4 7 5 1 6 5 4 3 2 0 4 3 4 7 8 9 11 12 12 11 12 14 14 13 13 15 17 16 13 12 13 13 13 13 13 12 13 13 13 13 13 13 13 14
11 11 12 11 10 10 9 8 7 6 5 4 3 4 3 3 5 4 2 2 2 3 4 5 5 5 6 4 4 8 7 4 3 2 4 3 2 3 3 2 4 4 3 5 7 8 5 2 1 2 2 5 4 5 7 10 12 12 12 12 11 14 16 15 13 13 16 18 15 12 12 12 12 12 12 12 13 13 13 13 13 14 14 13 13
11 11 12 11 11 10 8 8 8 8 7 6 5 5 5 4 5 4 3 3 2 3 4 6 5 4 8 5 4 7 5 6 8 3 4 6 3 4 1 2 3 7 6 4 6 8 7 4 2 2 2 4 2 3 6 9 12 12 11 10 12 15 17 14 12 13 16 17 14 11 10 10 11 11 12 13 13 14 14 14 13 14 15 14 13
12 12 11 11 11 11 9 9 8 8 8 7 6 5 5 5 4 3 4 3 3 4 4 6 5 4 7 6 4 5 6 7 10 7 6 7 5 6 7 5 3 8 8 5 5 9 10 7 3 3 5 5 3 5 8 9 12 13 12 12 13 14 15 13 12 14 15 15 13 11 10 9 10 11 12 13 14 14 15 14 14 13 14 15 14
11 12 11 11 11 11 10 9 9 9 8 8 7 6 5 6 4 4 5 4 3 4 4 5 6 5 6 6 5 6 4 4 5 6 6 6 6 5 6 8 7 8 11 9 6 6 7 9 8 5 5 7 7 9 10 10 11 12 11 12 12 13 16 15 13 14 14 13 12 11 10 10 11 12 13 14 14 15 15 15 15 14 14 15 15
11 11 10 11 11 12 11 10 10 10 10 9 8 8 7 6 6 5 5 5 5 4 4 5 6 5 5 5 5 5 5 4 4 6 5 3 4 4 4 4 5 6 9 10 8 5 4 4 4 3 3 4 6 9 10 9 10 11 11 10 11 14 16 14 13 15 15 12 11 11 11 11 12 14 14 15 15 15 15 15 15 15 14 14 14
11 9 8 9 11 12 12 11 11 10 10 10 9 9 8 7 8 7 5 6 6 5 5 5 6 6 5 5 4 5 6 4 4 6 5 3 3 3 3 2 1 1 4 6 6 6 7 7 3 1 4 7 8 9 10 10 10 11 11 10 12 14 15 15 16 17 15 12 11 11 11 12 14 15 16 16 16 15 15 15 15 15 15 14 13
11 9 9 10 11 11 11 11 12 11 10 11 10 10 10 9 9 9 7 7 8 7 7 7 6 6 6 5 5 5 6 5 4 4 3 2 2 2 4 2 1 0 1 1 3 5 8 10 6 3 6 9 10 9 11 10 9 11 12 12 12 13 14 17 18 16 14 14 14 12 11 13 14 14 16 16 15 15 14 15 15 15 15 14 13
10 10 10 11 11 11 11 11 12 11 10 11 11 10 10 9 9 10 9 8 9 8 9 9 7 6 7 5 4 4 5 5 4 5 5 3 3 4 4 3 2 2 2 1 2 4 7 9 8 8 9 11 10 9 11 11 10 13 13 12 12 13 15 18 17 16 15 15 15 13 12 14 14 13 15 15 14 15 15 15 16 15 15 15 13
11 11 11 11 12 12 11 11 12 12 11 11 11 11 11 10 10 10 9 9 10 9 9 9 7 7 7 6 5 5 4 5 4 5 7 4 4 5 3 3 5 5 5 3 1 3 6 8 10 11 11 12 11 11 12 11 11 13 12 11 13 14 16 18 18 17 14 12 14 14 13 15 13 12 15 15 14 15 16 17 17 16 15 15 13
12 11 10 12 12 12 12 12 12 12 12 11 11 12 12 11 10 10 10 11 11 9 9 9 8 8 7 7 6 5 5 5 5 6 7 6 6 7 6 5 5 6 7 5 4 5 8 9 10 11 12 13 12 11 12 12 11 12 12 12 14 15 16 18 19 17 14 15 16 15 15 16 13 13 15 14 13 15 17 18 19 18 17 15 14
12 11 10 12 12 12 12 12 12 12 13 12 12 13 13 12 12 11 10 11 11 10 9 9 9 9 8 7 6 6 6 6 7 7 7 7 7 6 6 7 5 5 6 5 5 7 9 9 10 11 12 11 11 11 12 12 13 13 13 14 15 15 16 17 17 17 18 20 18 15 16 17 15 14 16 15 14 16 18 19 19 19 18 16 15
13 12 11 11 12 12 13 12 12 13 14 13 12 13 13 13 12 11 10 11 12 11 11 10 10 9 8 8 7 8 8 8 8 9 8 8 7 5 6 7 5 6 7 6 5 5 8 11 11 11 12 11 11 12 12 14 14 13 14 15 15 15 15 15 16 17 19 18 16 17 19 18 17 16 17 16 16 18 20 19 19 19 18 17 15
13 12 12 11 12 13 13 12 13 13 14 14 14 13 14 13 12 12 11 12 12 12 12 11 11 10 9 9 9 8 9 9 9 9 8 8 6 4 5 6 5 6 7 7 6 5 7 10 11 11 11 12 12 13 13 13 13 13 14 14 14 15 15 15 16 17 18 18 17 19 19 18 18 19 19 18 17 19 21 20 19 18 18 17 16
12 13 12 12 14 15 13 12 14 14 13 15 15 13 13 14 14 13 12 12 13 12 12 12 11 11 11 11 10 9 9 9 8 8 8 8 6 6 6 6 5 6 7 7 8 7 7 10 11 11 12 13 14 14 13 12 13 14 14 13 13 15 14 13 14 16 17 19 19 19 18 19 22 24 21 19 18 21 22 21 19 19 18 16 15
13 13 13 13 15 17 15 13 14 15 15 15 15 14 13 14 14 13 13 13 14 13 13 12 12 11 11 11 10 9 9 9 9 8 9 8 8 8 8 7 6 7 7 7 8 9 9 11 12 12 13 14 15 14 13 13 14 14 13 14 15 16 14 12 13 14 15 17 19 19 20 22 24 22 18 17 20 22 22 21 20 19 19 17 15
14 14 14 14 15 17 18 15 14 16 17 16 16 15 14 14 14 13 13 13 13 13 12 13 12 12 12 11 11 10 10 10 10 9 9 8 8 9 9 8 7 8 9 9 10 10 11 12 13 14 14 14 14 13 12 13 15 17 18 17 17 16 14 13 13 13 14 16 19 20 21 22 21 19 17 19 22 23 23 22 21 20 19 18 16
15 15 15 16 15 16 17 16 15 16 17 16 16 16 15 15 15 14 13 12 13 13 13 13 13 12 12 12 12 12 11 12 11 10 10 9 9 9 9 9 8 8 9 10 10 10 10 11 12 13 13 14 14 14 15 16 17 18 17 17 17 15 13 13 14 16 17 20 21 21 19 19 19 19 20 21 22 24 24 23 22 20 18 16 16
17 16 16 17 16 15 16 17 16 16 17 16 16 17 16 16 15 14 13 13 12 12 13 13 13 13 13 13 13 13 13 14 13 12 10 9 9 8 8 9 9 8 8 9 10 10 10 11 13 13 15 16 16 18 18 17 16 15 14 15 15 14 15 19 21 21 21 21 20 19 19 19 21 22 22 23 25 25 23 22 22 20 16 13 13
18 17 17 17 17 18 18 18 17 16 15 16 18 17 16 16 15 13 14 14 12 11 13 13 14 14 14 13 13 13 14 15 15 14 12 11 10 9 8 8 8 8 9 9 10 11 11 12 13 14 15 16 17 18 17 14 15 15 15 14 14 16 20 24 25 23 21 20 19 20 21 21 23 24 24 26 27 24 21 23 23 19 13 11 12
16 17 18 18 18 18 17 16 16 16 14 14 17 18 17 16 15 13 13 14 13 12 13 13 13 13 13 13 14 14 14 14 14 13 15 15 14 14 14 13 12 11 11 11 11 11 12 13 14 14 14 15 15 16 16 16 16 15 16 17 19 21 21 20 22 23 21 19 20 22 24 25 25 26 27 27 26 23 21 22 21 17 14 13 14
8 10 14 16 15 16 17 16 16 15 14 14 16 18 18 17 16 13 12 13 12 13 13 13 13 13 13 13 14 14 14 13 12 12 14 15 15 16 16 16 16 15 15 15 14 14 13 13 14 14 13 14 15 16 17 17 16 16 19 21 20 19 18 15 16 20 21 20 22 25 29 30 27 26 27 26 23 21 20 19 19 19 19 18 16
9 7 8 10 12 13 15 15 14 13 14 14 15 16 18 19 18 16 14 12 11 12 13 15 15 15 14 13 13 13 12 12 12 12 14 14 13 14 14 14 14 15 17 18 19 19 17 15 15 14 15 16 17 17 16 16 17 20 21 19 17 17 17 15 15 20 24 24 24 26 30 30 26 24 24 24 23 21 18 18 19 19 19 19 18
11 10 8 7 8 10 9 10 12 12 12 13 14 16 18 20 20 18 17 14 12 13 14 15 15 14 13 13 14 15 13 11 12 12 12 12 12 13 13 13 14 15 17 18 20 22 21 20 20 21 20 18 17 18 18 18 20 20 18 17 16 16 17 18 20 25 28 27 25 25 27 27 24 22 23 24 23 21 19 18 18 18 19 21 20
13 14 12 9 10 11 9 8 9 8 6 10 16 18 20 24 24 22 19 15 13 13 14 14 14 13 13 13 14 14 14 14 14 14 13 13 13 13 13 14 16 17 18 18 19 20 22 24 25 26 25 22 21 21 20 20 19 17 15 16 17 17 19 22 24 27 27 24 21 21 22 24 22 20 21 23 22 20 19 18 19 19 20 22 22
15 15 15 14 15 14 12 10 9 6 5 10 15 17 20 25 25 22 19 15 12 12 14 14 14 14 13 12 12 11 11 12 13 13 12 13 14 14 13 13 15 16 16 17 18 19 21 23 26 27 27 24 21 20 19 16 15 14 15 18 20 21 23 23 23 23 21 18 17 16 17 20 22 20 20 21 20 19 20 21 22 21 19 20 21
15 14 14 16 17 16 14 13 12 9 7 9 12 12 13 16 18 17 14 13 11 11 12 13 13 12 10 9 11 12 11 11 11 12 12 12 13 13 12 12 13 14 15 16 17 18 18 18 20 22 23 21 20 20 18 15 15 17 19 22 23 22 20 20 20 20 17 15 16 15 15 18 19 19 21 21 20 20 22 23 23 20 18 19 20
15 14 14 15 15 14 13 13 13 12 10 8 9 10 11 13 14 12 9 8 9 9 9 10 11 10 9 9 11 12 13 13 13 12 11 11 12 11 11 12 13 14 15 15 15 15 14 13 14 15 16 16 16 17 16 15 17 20 21 22 22 20 17 16 16 17 18 18 17 15 14 15 16 17 20 22 21 21 21 21 21 19 19 21 23
14 15 15 16 16 14 11 9 9 9 10 9 9 11 13 13 13 11 9 7 7 9 10 11 13 13 13 12 12 12 13 14 15 13 11 11 11 11 10 11 13 14 13 12 10 11 12 13 14 14 14 14 15 16 18 19 21 22 21 20 19 17 16 16 16 18 20 18 15 13 14 17 17 17 19 20 21 21 19 18 20 20 20 22 25
13 13 14 15 16 15 13 10 8 8 10 12 10 10 11 12 11 10 10 9 9 10 11 12 13 14 14 13 12 11 10 12 12 11 10 11 11 9 9 10 12 13 12 11 12 13 15 15 15 15 16 17 18 19 20 20 19 18 17 16 15 13 14 15 17 17 15 12 13 15 18 19 19 18 18 16 14 16 20 21 20 21 22 23 24
Wind_Direction
138 140 143 148 147 147 151 151 155 147 143 155 164 163 153 146 180 195 166 169 172 168 169 149 130 134 139 131 121 104 111 121 135 152 137 84 54 48 64 93 86 100 91 67 54 4 230 225 261 299 290 327 324 302 324 330 338 352 342 338 336 335 326 319 316 312 307 301 296 296 296 296 296 297 299 301 301 298 294 294 292 289 286 283 278
139 141 150 155 152 155 158 159 164 154 146 157 167 168 169 163 150 147 152 139 146 149 141 125 117 125 133 130 125 120 130 140 136 136 144 171 64 56 59 74 83 86 87 75 60 57 56 70 75 49 49 45 32 32 53 50 40 24 9 359 351 342 333 325 317 309 301 298 297 297 297 299 302 303 307 310 310 307 303 302 299 296 293 291 289
146 145 154 157 157 160 163 167 168 161 159 164 169 172 176 177 135 129 141 119 136 160 137 120 124 129 126 122 124 131 140 157 152 140 142 164 67 56 63 71 82 78 75 74 70 62 65 70 67 73 66 67 70 70 76 67 48 28 12 0 350 340 331 322 311 305 302 302 302 301 304 305 308 312 318 322 318 314 310 306 301 298 298 298 298
145 148 156 158 160 162 166 169 162 162 165 156 155 149 142 135 117 119 138 156 162 196 167 131 136 141 128 121 122 127 127 161 151 132 130 141 182 47 64 68 71 74 75 69 69 64 62 67 69 78 79 78 82 78 74 56 38 20 7 354 344 335 327 321 315 313 311 312 311 309 311 313 318 326 327 323 316 312 308 304 299 296 298 299 301
144 149 153 155 157 155 156 155 147 149 144 132 128 125 130 127 113 107 147 191 164 184 190 129 123 139 131 125 114 120 127 137 139 138 138 134 158 202 70 74 71 69 73 63 57 57 54 63 77 87 89 88 81 65 58 39 25 13 3 354 346 339 333 332 332 334 335 333 333 329 326 329 333 334 330 325 323 323 320 316 311 308 309 310 315
140 144 144 145 146 142 140 134 130 129 129 129 110 106 128 114 105 120 216 219 160 189 192 124 118 109 120 130 129 148 153 125 123 143 137 126 148 172 88 66 75 71 67 56 48 47 53 71 88 99 98 86 70 46 34 27 20 12 7 1 356 355 353 356 2 5 9 9 6 1 355 351 348 346 345 343 341 338 336 333 329 326 326 328 333
136 137 138 141 139 135 131 126 125 120 126 127 93 96 102 61 20 283 311 266 137 116 77 114 123 78 72 108 127 160 147 119 127 140 130 133 146 153 141 74 62 49 13 21 44 47 55 78 90 96 97 76 49 29 22 20 17 12 12 12 11 13 14 18 26 30 30 29 25 18 11 4 360 359 357 352 349 347 348 346 340 337 336 338 340
134 133 133 137 135 130 127 126 125 119 122 106 86 81 66 37 16 0 349 13 123 138 110 132 146 134 119 124 130 120 125 140 160 142 138 151 144 139 150 145 134 222 293 288 51 51 53 65 86 88 86 66 34 21 21 19 17 16 16 21 23 27 35 39 41 44 42 38 34 28 21 14 7 4 1 355 354 354 357 358 354 352 349 348 344
132 141 134 134 135 129 126 120 114 121 120 94 84 50 33 39 31 18 3 355 305 285 150 183 160 162 172 144 138 66 118 170 119 128 136 141 153 158 158 160 155 155 215 218 157 62 64 58 75 85 71 46 28 20 23 21 16 16 16 21 30 36 42 47 47 46 46 43 38 35 28 22 17 12 6 1 357 358 3 7 8 7 3 358 349
137 140 124 134 134 121 123 111 110 123 96 81 88 38 7 82 54 12 353 349 315 318 254 222 175 166 158 137 134 61 118 148 100 126 158 150 178 172 161 170 157 129 179 196 196 81 126 36 42 83 63 40 33 29 23 22 17 12 10 7 15 26 29 35 39 39 40 39 36 33 30 26 22 18 12 7 3 3 8 14 15 15 14 8 357
140 119 102 120 123 117 122 109 110 119 49 68 84 43 34 59 59 26 10 0 317 315 319 301 1 81 118 130 146 109 110 141 141 178 186 156 170 175 168 166 156 149 159 177 190 179 193 290 296 247 62 38 31 32 22 19 16 6 3 359 351 354 359 4 16 24 29 29 29 26 24 23 20 19 15 11 7 7 13 17 17 18 16 12 6
147 127 101 116 124 128 136 119 101 99 70 69 77 66 41 35 37 9 353 321 296 275 281 298 34 51 82 123 140 147 138 166 181 191 167 150 164 209 184 157 160 180 165 163 177 168 185 244 283 259 263 356 353 11 9 9 14 4 356 356 350 340 338 342 353 5 13 15 18 17 15 15 12 13 13 10 7 6 11 13 13 14 14 12 9
156 147 128 125 129 133 140 129 113 128 116 73 83 90 35 33 29 324 311 297 291 263 242 273 131 131 112 139 152 181 175 181 190 190 196 176 174 230 184 156 155 174 164 158 169 173 194 189 175 229 244 299 304 336 338 329 360 2 355 351 352 348 338 338 343 350 359 3 6 8 9 8 4 3 6 5 3 1 3 5 6 9 10 10 9
160 154 146 131 130 139 140 124 113 131 98 47 78 115 58 35 356 316 302 289 296 301 162 126 159 194 198 169 164 178 183 201 215 211 207 187 168 185 190 166 150 158 166 161 171 184 199 166 123 145 217 293 290 291 291 294 346 358 354 348 346 350 348 346 345 345 351 357 0 3 4 4 1 356 356 356 355 356 356 358 1 3 7 9 7
165 158 156 153 146 145 143 126 113 125 119 340 214 165 114 26 352 334 313 297 293 323 174 248 310 211 179 181 166 167 204 232 240 229 198 180 169 171 199 173 143 156 187 196 184 181 179 161 142 176 200 233 268 284 274 278 333 346 346 343 335 338 347 348 346 342 342 346 351 356 360 1 1 356 352 350 348 350 351 352 355 358 4 8 6
171 161 162 174 161 149 158 166 142 142 178 204 297 327 31 351 312 281 313 312 303 332 213 248 344 40 89 288 99 109 281 248 244 230 192 200 184 173 191 152 135 174 214 204 188 173 178 185 175 185 191 173 134 56 302 268 305 334 336 333 326 323 332 338 337 334 330 333 336 341 349 353 357 356 353 349 344 344 345 347 350 351 358 6 6
171 170 168 171 166 163 170 170 154 171 195 221 293 271 240 205 267 291 324 323 324 338 332 242 64 32 8 40 53 41 308 327 315 259 288 276 192 150 194 156 139 190 218 183 175 181 199 195 172 173 185 203 201 255 303 257 257 334 326 320 320 314 320 327 328 326 321 322 325 328 335 340 346 350 350 349 345 342 342 343 345 345 351 3 6
171 176 172 169 181 180 166 156 158 187 210 235 246 232 218 205 250 319 324 322 332 338 339 26 113 242 62 102 90 111 184 321 345 292 282 301 335 102 205 193 140 151 205 186 186 198 204 195 181 184 196 207 224 264 285 258 251 332 326 315 319 310 314 326 325 324 319 318 320 320 325 330 335 340 343 345 343 341 341 340 341 341 344 355 5
172 176 170 170 185 183 167 161 175 190 201 221 230 250 252 231 218 322 316 311 339 342 340 359 298 239 198 123 131 157 198 199 48 315 296 311 319 351 211 210 167 176 195 195 197 191 199 200 194 189 190 207 264 269 291 297 301 329 327 319 321 307 310 328 330 328 323 319 319 318 320 324 328 333 337 340 339 339 339 339 338 337 339 346 360
172 176 171 171 178 178 179 183 194 194 188 205 222 238 212 156 167 298 319 317 338 337 335 351 343 296 35 24 341 312 224 150 114 286 299 320 308 315 346 353 187 212 159 153 210 227 206 205 205 188 185 213 248 211 336 334 324 328 320 311 320 315 316 329 335 335 332 328 323 319 320 322 327 330 333 336 335 335 336 336 336 335 336 339 350
173 175 172 175 180 177 186 197 200 181 181 219 215 203 191 156 195 251 268 284 328 323 318 351 348 339 26 351 328 341 323 286 174 196 233 195 333 331 1 15 23 332 3 75 189 261 221 201 241 181 180 246 233 194 331 326 327 330 318 307 318 327 329 331 335 336 337 338 330 324 325 325 328 330 332 335 334 333 332 331 332 331 333 335 341
173 179 177 180 187 181 184 197 201 178 187 227 208 186 205 205 221 238 244 239 284 308 307 339 338 331 348 341 322 326 314 311 352 100 266 220 268 352 31 18 352 286 342 16 269 272 243 214 221 146 110 305 274 261 304 327 328 321 310 306 317 328 332 331 331 333 338 341 336 329 329 328 330 332 333 335 333 331 330 326 327 326 327 330 335
172 180 182 181 190 188 182 187 198 195 195 222 213 200 229 233 221 219 222 236 245 284 291 295 299 302 307 304 286 279 273 295 319 332 311 294 339 6 83 48 301 264 300 305 273 267 265 247 208 113 276 292 295 283 313 340 334 322 311 311 322 330 331 328 326 332 339 341 338 332 333 331 333 335 335 334 330 328 328 325 322 321 321 324 329
178 182 188 187 188 189 188 191 199 198 191 207 217 218 233 220 195 203 221 222 236 268 278 282 283 288 299 301 276 284 321 326 305 309 309 307 345 330 283 132 275 267 258 276 285 287 304 301 220 127 333 303 338 353 346 339 326 321 317 320 331 331 326 323 325 335 341 342 341 338 337 337 336 337 333 329 326 323 324 323 320 317 317 317 321
186 185 188 191 188 186 195 200 198 196 195 205 216 218 219 200 176 203 225 207 225 257 272 282 280 283 298 309 300 313 358 339 322 1 352 323 358 341 332 18 337 291 299 317 305 297 322 347 353 28 349 304 298 332 331 324 316 313 315 324 333 333 328 325 328 336 340 344 348 347 343 341 338 336 333 328 324 321 319 319 318 316 314 313 313
193 192 189 192 192 187 195 202 195 200 208 208 214 213 200 190 191 213 217 207 224 251 268 276 284 286 279 294 310 307 323 320 315 356 4 350 9 359 347 1 349 327 325 327 330 319 332 358 3 353 304 268 275 311 326 329 322 316 320 330 335 333 329 324 324 331 335 341 350 353 349 345 340 336 333 329 326 324 321 318 317 315 312 311 309
194 197 195 194 197 191 193 202 201 205 211 209 211 216 206 198 215 226 225 232 228 235 260 265 279 294 276 280 307 300 300 317 310 328 350 344 341 356 356 349 345 340 332 330 345 351 321 325 342 332 320 304 307 322 333 333 324 321 324 329 332 330 324 318 319 325 323 324 339 348 348 349 347 342 337 332 329 327 325 323 321 317 313 310 307
194 195 196 193 198 196 192 199 205 205 207 205 205 214 213 207 224 231 221 236 242 237 250 251 253 273 272 261 273 277 279 292 303 313 324 290 297 339 319 307 27 356 328 332 344 352 338 333 350 43 11 359 341 331 330 320 317 327 331 327 328 328 322 315 315 317 310 304 316 329 337 346 348 345 343 339 335 333 332 328 325 321 316 312 308
192 193 201 196 198 199 194 201 208 205 204 204 205 215 217 207 223 233 216 227 251 245 242 246 247 271 282 264 250 258 262 273 288 283 279 293 300 294 293 316 36 304 268 315 332 333 331 332 339 343 341 343 337 331 333 325 322 332 330 324 326 324 317 312 312 312 301 292 300 309 323 337 340 343 344 342 341 341 340 335 329 324 319 315 312
194 190 198 200 202 206 202 206 212 209 206 205 205 218 221 211 223 237 224 229 248 244 242 248 250 266 278 276 270 258 257 279 290 263 259 285 301 298 310 305 261 229 206 257 300 302 317 327 325 318 321 329 329 324 327 327 326 326 319 317 323 321 313 310 313 316 302 286 289 296 311 324 329 338 343 340 342 344 343 339 332 325 320 317 315
201 196 202 204 205 209 208 210 214 210 211 210 206 214 221 219 228 237 232 237 246 245 247 251 248 259 264 265 276 269 262 283 290 275 271 265 273 290 292 264 253 235 221 213 215 271 299 315 316 316 316 320 327 325 321 320 319 319 317 318 322 319 313 309 314 321 314 297 292 293 305 313 316 334 340 338 342 343 342 342 336 329 322 317 316
198 200 207 206 203 208 210 215 217 211 212 214 211 214 220 221 224 232 236 239 242 244 249 251 249 258 256 248 258 262 259 271 274 276 272 251 252 265 260 260 259 239 231 223 214 260 288 305 314 317 316 319 325 323 320 320 317 316 320 321 318 314 311 311 318 327 328 319 306 300 307 306 307 325 332 332 337 340 341 342 339 333 326 318 315
201 203 209 208 206 209 211 215 219 215 214 215 215 216 219 222 224 231 236 233 234 239 245 251 253 254 252 244 247 256 255 258 262 269 271 260 253 248 249 260 262 250 252 242 231 260 291 306 309 309 313 317 316 314 318 317 313 313 317 318 314 312 312 316 324 326 322 318 309 307 313 306 303 317 322 324 331 334 338 338 336 335 331 323 316
204 205 213 213 211 213 213 215 219 218 216 216 219 218 216 221 225 227 232 231 236 243 244 249 251 249 250 247 247 253 252 251 253 258 264 265 256 240 241 253 268 282 275 259 240 253 291 306 311 310 314 316 311 313 315 310 309 312 314 314 315 315 315 320 323 319 318 321 317 318 318 308 304 312 313 316 324 329 332 330 329 331 331 327 320
206 208 216 213 211 217 216 215 217 219 220 218 221 222 218 221 224 226 230 231 235 240 241 243 246 245 247 246 246 249 250 248 248 251 262 271 272 267 257 255 268 274 260 254 262 264 283 302 312 313 313 314 310 307 307 306 309 310 308 310 314 315 314 316 319 318 322 328 325 323 322 315 315 316 308 308 318 328 328 323 322 324 325 326 322
208 211 219 217 219 221 217 219 222 221 222 222 223 224 223 224 227 230 233 233 233 236 239 241 242 241 243 244 244 246 251 255 253 255 265 271 272 275 268 261 264 264 254 255 271 277 280 290 301 306 305 304 302 299 298 300 302 302 301 304 307 310 311 312 317 320 323 326 325 329 332 325 320 315 307 305 316 326 326 320 316 316 314 316 318
210 212 218 220 225 226 218 219 228 226 225 227 226 225 227 229 228 230 234 239 243 241 240 243 244 243 245 247 248 247 252 256 255 256 262 263 266 269 266 262 266 268 263 258 264 273 273 272 282 293 294 294 296 298 301 303 303 301 297 296 296 300 303 304 311 318 321 323 326 330 329 319 314 315 314 315 320 324 325 320 314 310 306 305 306
212 214 217 218 223 228 223 219 227 230 226 227 230 230 230 230 229 229 231 238 245 246 245 247 248 247 248 251 252 251 251 254 253 254 258 258 262 268 267 268 273 273 273 273 268 268 270 272 279 287 289 293 298 304 307 304 300 295 289 289 294 301 304 303 309 320 322 321 322 321 318 315 317 325 327 324 323 324 322 317 311 305 301 298 296
207 210 215 219 220 224 224 221 227 232 229 229 234 233 232 233 233 233 233 235 239 244 249 250 250 250 250 249 250 248 246 249 251 254 259 258 257 265 271 272 273 270 272 279 281 283 288 291 292 293 295 299 302 303 302 295 291 292 291 292 301 317 328 324 323 326 322 319 319 317 316 317 320 322 321 318 320 322 317 312 308 304 298 293 289
206 208 212 219 221 221 222 223 225 228 230 231 234 235 235 236 235 234 236 237 239 244 249 251 252 253 252 251 250 248 246 246 245 246 255 257 254 259 267 271 276 280 282 289 296 299 300 297 295 296 297 298 296 294 293 291 295 306 310 307 314 334 341 330 323 321 319 318 318 315 313 314 313 314 314 313 316 319 316 312 310 305 293 281 278
209 212 214 219 220 218 219 222 223 225 228 230 233 235 235 236 235 234 235 235 237 242 248 251 253 254 255 253 252 252 251 248 242 239 241 245 247 249 254 264 276 284 285 287 289 291 292 288 288 290 291 291 292 294 298 304 312 319 325 330 336 340 334 323 317 317 320 319 316 312 310 311 311 311 311 311 315 318 315 311 310 303 288 276 277
213 217 222 226 222 217 218 219 220 224 226 229 234 234 233 235 236 235 237 239 240 242 248 254 255 256 258 256 255 255 255 253 252 244 237 237 243 249 254 259 262 264 269 274 277 278 279 279 281 286 289 290 296 304 313 318 319 327 338 341 337 331 326 320 315 317 321 323 319 315 310 310 310 309 309 311 313 315 312 312 315 314 306 301 297
225 227 229 230 224 219 221 221 221 225 227 231 237 238 233 232 235 237 241 244 245 245 251 256 258 259 262 265 265 262 258 259 262 256 248 248 253 257 260 264 262 259 259 262 265 266 269 274 279 285 289 293 301 310 313 313 315 325 331 329 325 321 318 314 310 312 318 321 319 313 308 309 311 309 309 312 313 314 314 313 315 316 315 313 307
244 245 237 230 224 220 222 223 225 229 231 231 239 245 238 231 232 237 240 243 247 248 251 256 259 260 262 267 274 274 269 264 262 258 257 258 260 262 264 267 266 263 261 260 261 263 266 272 278 281 282 288 293 297 298 301 307 313 315 314 313 312 308 306 303 304 309 314 313 307 304 309 313 310 309 311 311 309 307 305 304 305 310 312 307
253 255 249 236 234 230 226 228 235 241 242 241 247 251 243 238 239 239 237 242 251 254 258 261 259 258 261 266 274 279 282 280 276 271 266 262 263 265 267 269 271 272 270 267 264 264 265 265 267 270 272 273 276 280 287 293 297 302 305 306 308 307 304 303 301 301 305 310 308 301 298 304 311 310 308 311 312 308 308 313 314 314 316 316 309
257 260 255 248 245 239 234 239 247 251 249 251 256 253 246 247 247 239 233 239 252 261 270 276 274 271 274 278 281 284 289 290 288 286 281 274 270 268 267 269 273 276 278 278 275 270 268 265 263 265 267 269 270 275 286 293 292 294 302 307 309 307 304 303 302 302 307 310 305 293 290 300 310 310 307 311 316 318 319 321 322 323 322 318 314
254 256 255 253 250 245 241 246 255 258 240 242 252 254 250 246 240 230 228 236 251 261 268 279 288 289 288 288 290 295 302 305 299 294 289 281 274 271 272 273 274 276 280 283 283 281 278 272 267 267 269 270 269 273 285 297 298 299 308 311 310 308 307 306 305 305 308 312 308 293 288 302 313 313 311 316 320 320 318 318 322 324 320 317 319
245 245 250 252 250 246 244 245 252 255 243 237 242 240 235 231 223 220 230 243 256 268 270 277 290 299 298 293 290 291 299 308 310 307 304 293 280 274 275 278 283 286 287 288 290 293 294 285 274 272 272 269 269 276 287 301 310 312 314 312 311 311 310 306 304 305 308 313 316 310 304 311 319 320 318 321 323 320 320 323 328 328 322 318 321
234 237 243 245 246 247 246 244 247 244 236 237 236 216 203 208 212 216 231 253 266 272 273 274 277 283 291 294 294 293 292 291 290 291 298 301 295 289 285 287 292 295 297 299 298 300 307 307 296 290 287 281 280 286 291 297 306 311 310 308 310 312 309 304 303 307 310 312 315 316 315 318 324 325 321 320 320 320 322 327 328 326 322 318 317
233 236 238 239 241 240 235 232 235 231 221 219 217 207 203 208 214 216 224 246 259 261 265 269 270 275 285 288 286 284 280 276 272 269 276 288 294 300 303 299 295 295 299 305 305 301 306 310 310 307 302 298 297 299 300 300 303 308 308 305 308 311 305 302 308 310 310 310 311 315 320 321 321 323 324 319 316 316 318 322 324 323 320 317 317
238 239 241 245 246 241 232 223 214 207 202 200 204 214 214 211 213 222 233 244 254 260 270 276 274 274 278 280 281 278 272 270 267 266 276 284 287 295 304 307 306 304 304 306 309 309 307 307 309 308 305 305 305 306 308 308 309 313 313 308 311 312 304 304 312 313 308 307 309 313 318 318 315 317 320 318 314 313 315 318 320 319 317 320 325
Height
851 852 853 854 855 855 856 856 856 856 856 857 857 857 857 857 857 858 858 858 858 858 857 857 857 857 858 858 858 859 859 860 860 860 860 860 861 861 861 861 861 861 861 861 861 861 861 861 861 861 861 861 861 861 860 860 859 858 858 857 856 856 855 854 854 853 852 852 851 850 849 849 848 847 846 845 844 843 842 841 840 840 840 840 841
852 853 854 855 856 856 856 857 857 857 857 857 857 857 857 858 858 858 858 858 858 857 857 857 857 857 857 858 858 859 859 859 860 860 860 860 861 861 861 861 861 861 861 861 861 861 861 861 861 861 861 861 861 861 860 860 859 858 858 857 856 855 855 854 853 852 852 851 850 849 849 848 847 846 845 844 843 842 841 840 839 839 838 838 838
854 854 855 856 856 857 857 857 857 857 857 857 857 858 858 859 858 858 858 858 858 857 857 857 857 857 857 858 858 858 859 859 859 860 861 861 861 862 862 862 862 861 861 862 861 861 862 861 861 861 861 861 861 861 860 860 859 859 858 857 856 855 854 853 853 852 851 850 849 849 848 847 847 846 845 844 842 841 840 839 838 837 837 836 837
855 855 856 856 856 857 857 857 857 857 858 858 858 859 859 859 859 859 858 858 858 857 857 857 857 857 857 858 858 858 859 859 859 860 861 861 861 862 862 862 862 862 862 862 862 862 862 862 862 862 862 862 862 861 861 860 860 859 858 857 856 855 854 853 852 851 850 850 849 848 847 847 846 845 844 843 842 840 839 838 836 836 835 835 835
854 855 855 856 856 857 857 857 858 858 859 859 859 859 859 859 859 859 858 858 858 857 856 857 857 856 857 857 858 858 858 858 859 860 860 861 861 861 862 863 862 863 863 862 862 862 862 862 862 862 862 862 862 861 861 860 860 859 858 857 856 855 853 852 851 851 850 849 849 848 847 846 845 845 844 843 841 839 838 836 835 834 833 833 833
854 855 855 856 856 857 857 857 858 858 858 859 859 859 859 859 859 859 858 858 858 857 856 856 856 856 856 857 858 858 858 858 859 859 860 861 861 861 862 863 863 863 863 863 863 862 863 862 862 862 862 862 862 861 861 861 860 859 858 857 856 855 854 853 852 851 850 849 849 847 847 846 845 844 843 842 841 839 837 836 834 833 832 832 831
853 854 855 856 856 856 857 858 858 858 859 859 859 859 859 860 859 859 858 857 858 857 856 856 856 856 857 857 858 858 858 858 859 860 860 860 861 862 862 862 863 863 863 863 863 863 863 863 863 863 862 862 862 862 861 861 860 859 859 857 856 855 854 853 852 851 851 850 849 848 847 846 845 844 843 842 840 839 837 836 834 833 832 831 830
853 854 855 855 856 856 857 858 858 859 859 859 859 859 859 860 859 859 858 857 857 857 857 856 856 857 857 858 858 858 858 858 858 859 860 860 861 862 863 863 862 863 863 863 863 863 863 863 863 862 862 862 862 862 862 861 861 860 859 858 857 856 855 854 853 852 851 850 849 848 847 846 845 844 842 841 840 839 837 836 834 833 831 830 829
853 853 854 855 856 857 858 858 859 858 859 859 859 859 859 859 859 859 858 857 857 856 856 856 856 857 857 858 858 858 858 858 858 859 859 860 861 861 862 863 863 863 862 862 863 863 863 863 863 862 862 862 862 862 862 861 861 860 860 859 858 857 856 855 854 853 852 851 850 849 848 846 845 844 842 841 840 839 838 836 834 833 831 829 828
853 853 854 855 856 857 858 858 858 858 858 859 859 859 859 859 859 858 858 858 857 856 856 856 856 856 856 857 858 858 858 858 858 858 859 860 860 860 860 861 862 862 862 862 862 863 863 862 862 862 862 862 862 862 862 861 861 860 860 859 859 858 857 856 855 854 853 851 850 849 848 846 845 844 843 841 840 839 838 836 834 833 831 829 827
853 854 854 855 856 857 858 858 858 858 858 859 859 859 859 859 859 859 858 858 857 857 857 856 855 855 856 857 858 858 858 858 859 859 859 859 859 860 860 860 861 862 862 862 862 862 862 862 862 862 862 862 861 861 861 861 860 860 860 859 859 858 857 857 855 854 853 852 851 849 848 847 845 844 843 842 840 839 838 836 834 833 831 829 827
854 855 856 856 857 858 858 858 859 859 859 859 860 860 860 860 860 860 859 859 858 857 857 856 856 856 856 857 858 858 858 858 858 859 858 858 859 859 859 859 860 861 861 862 862 862 862 862 862 862 862 861 861 860 860 860 860 859 859 859 858 858 857 856 856 855 853 852 851 850 848 847 846 844 843 842 840 839 838 836 835 833 831 829 827
855 856 857 857 858 858 859 859 860 860 860 860 860 860 860 861 860 861 861 860 858 858 858 857 856 857 857 857 857 857 858 858 858 858 857 858 858 858 858 858 859 860 861 861 862 862 862 862 861 861 861 861 860 859 859 859 859 858 858 858 857 857 856 856 855 855 854 853 851 850 849 847 846 844 843 842 841 839 838 836 835 833 831 829 827
856 856 857 858 858 859 859 859 860 861 861 861 861 861 861 861 861 861 861 860 859 858 858 857 857 857 856 856 857 857 857 857 857 856 855 856 857 857 857 858 859 860 861 861 861 861 861 861 861 861 861 861 859 859 859 858 858 858 858 858 857 856 855 855 855 854 853 852 851 850 849 847 846 844 843 842 841 839 838 836 835 833 831 829 827
856 857 858 858 858 859 859 860 860 861 862 862 862 861 862 861 861 862 861 860 859 858 858 858 857 855 855 857 857 858 858 856 855 855 854 855 855 856 856 856 858 859 859 860 861 861 861 861 861 861 861 860 859 858 858 858 858 858 857 857 857 856 855 854 854 853 853 852 851 850 849 848 846 844 843 842 841 839 838 836 835 833 832 830 827
856 857 858 858 859 859 859 860 860 861 862 863 863 862 862 862 862 862 862 861 860 859 858 857 857 856 856 858 856 859 863 858 854 853 853 854 854 855 855 856 858 859 859 859 860 861 861 861 861 861 860 859 859 858 858 858 858 858 857 856 856 856 855 854 853 853 852 851 851 850 848 847 846 844 843 841 840 839 838 836 835 833 832 830 828
856 857 858 858 859 859 860 860 861 862 862 862 863 863 862 862 863 863 862 862 860 859 859 857 857 857 857 858 859 863 864 858 855 855 853 853 853 853 854 855 857 859 859 859 860 860 860 860 860 860 859 859 859 858 858 858 857 857 856 856 856 855 854 853 853 852 851 851 850 849 848 847 845 844 842 841 840 838 837 836 835 833 831 830 828
856 857 858 859 859 860 860 861 861 862 862 862 863 863 863 863 863 864 863 862 861 860 859 858 858 858 857 857 859 862 860 857 859 859 855 853 853 854 855 855 856 858 858 859 859 859 859 859 859 859 859 859 858 858 858 858 857 856 856 855 855 855 854 853 852 851 851 850 849 848 847 846 845 844 842 841 839 838 837 836 834 833 831 830 828
856 857 858 858 859 860 861 861 862 862 862 863 863 863 864 863 863 864 863 862 862 861 860 859 858 858 858 857 857 858 858 857 860 861 861 857 854 854 855 855 856 856 857 858 859 859 859 858 858 858 858 859 858 858 858 858 858 857 856 855 855 854 854 852 851 851 850 849 849 847 846 845 844 843 842 840 839 838 836 835 834 832 831 830 828
856 856 857 858 859 860 861 861 862 862 862 862 863 863 863 863 863 863 863 862 862 861 861 860 859 859 858 858 858 858 858 858 858 860 862 862 858 855 855 855 855 856 858 859 859 859 859 858 858 858 858 858 858 858 858 858 857 857 856 855 854 854 853 852 851 850 850 849 848 847 846 844 843 842 841 840 839 837 836 835 833 832 831 829 828
855 856 857 858 858 860 860 861 862 862 862 862 863 863 862 863 863 863 863 862 862 862 862 861 860 860 859 860 859 859 859 858 858 858 859 862 862 857 856 856 856 857 858 859 860 860 859 859 859 858 858 858 858 858 858 858 857 856 856 855 854 854 853 852 851 850 849 848 847 846 845 844 843 842 841 839 838 837 835 834 833 831 830 829 828
855 856 857 858 858 859 860 861 861 861 862 862 862 862 862 862 862 862 862 862 862 862 862 862 862 861 861 861 861 861 861 859 859 860 859 860 861 859 858 858 859 858 858 859 861 861 860 859 858 857 858 858 858 858 858 857 857 856 855 855 854 853 852 851 850 850 849 847 846 845 844 843 842 841 840 839 837 836 835 833 832 831 830 828 827
855 856 857 858 858 859 860 860 861 861 861 861 861 861 862 862 862 862 862 862 862 863 863 863 863 862 862 862 862 862 862 861 861 861 861 860 860 860 860 860 860 860 859 860 860 859 859 859 858 857 858 858 857 857 857 857 856 856 855 854 854 853 852 851 850 849 848 847 845 844 843 842 841 840 839 838 837 835 834 833 832 830 829 828 827
854 855 856 858 858 859 859 860 860 861 861 861 861 861 861 861 861 862 862 862 863 863 863 863 863 863 862 862 862 862 862 862 862 862 862 861 861 861 860 860 861 860 859 860 860 860 859 859 859 858 858 858 858 857 857 856 855 855 854 854 853 852 851 850 849 848 847 846 845 844 843 842 840 840 838 837 836 835 833 832 831 830 828 827 826
853 854 856 857 857 858 859 859 859 859 859 860 860 860 860 860 861 862 862 863 863 863 863 863 863 862 862 862 862 862 862 863 862 863 863 862 861 861 861 861 861 860 859 859 861 862 860 859 859 858 859 859 858 857 857 856 855 854 853 853 852 851 850 850 849 848 847 846 845 843 842 841 840 839 838 837 835 834 833 831 830 829 828 826 825
852 853 854 856 856 857 858 858 858 859 859 859 859 859 860 860 861 861 861 862 863 863 863 862 862 862 861 862 862 862 863 863 863 863 863 863 862 862 862 862 861 860 860 860 861 863 862 859 858 858 859 859 857 857 856 855 854 853 852 852 851 850 850 849 848 847 846 845 844 843 842 840 839 838 837 836 834 833 832 831 829 828 827 826 824
851 852 853 854 855 856 857 857 857 858 858 859 859 859 860 860 860 861 861 862 862 862 862 862 862 862 861 861 861 862 862 863 863 863 863 864 863 862 862 863 863 862 861 860 859 861 861 858 858 858 858 858 857 857 856 855 854 853 852 851 850 849 849 848 848 847 846 845 843 842 841 839 838 837 836 834 833 832 831 830 829 827 826 825 824
850 851 852 853 854 855 856 857 857 858 858 858 859 859 859 860 860 860 861 861 861 861 861 861 861 861 861 861 861 861 862 862 862 862 862 863 862 862 862 862 864 865 863 861 859 859 859 858 857 858 857 857 856 856 855 854 854 853 852 851 850 849 848 847 847 846 845 844 842 841 840 838 837 836 834 833 832 831 830 829 827 826 825 824 823
849 850 851 852 853 854 855 856 856 857 858 858 858 859 859 859 859 860 860 860 860 860 860 860 860 861 861 861 861 861 861 861 862 862 862 862 861 861 861 860 862 864 865 865 862 859 859 858 857 857 857 856 856 855 854 854 853 852 851 850 849 848 848 847 845 845 844 843 841 840 839 838 836 835 834 833 831 830 829 828 826 825 824 823 823
848 849 850 851 853 854 855 855 856 856 857 857 858 858 858 859 859 859 859 859 859 859 860 860 860 860 860 861 861 861 861 861 861 861 861 862 861 860 860 860 861 862 863 865 863 859 858 858 857 857 856 855 855 854 854 853 853 852 850 849 849 848 847 846 844 843 842 841 840 839 838 837 835 834 833 832 831 830 828 827 826 824 823 822 822
846 847 849 850 851 853 854 855 855 856 856 857 857 857 858 858 858 859 859 859 859 859 859 859 859 860 860 860 860 860 860 861 860 861 861 860 861 860 860 860 860 861 860 862 862 860 858 858 857 856 855 855 854 853 853 853 852 851 850 849 848 847 846 845 842 841 841 840 839 838 837 836 834 833 832 831 830 829 827 826 825 824 823 822 821
845 846 848 849 850 851 852 854 854 855 855 856 856 857 857 857 858 858 858 858 858 858 859 859 859 859 859 860 860 860 860 860 860 860 860 860 860 860 860 860 860 860 859 859 860 859 858 858 857 856 855 854 853 852 852 851 851 850 849 848 847 846 845 843 842 841 840 839 838 837 836 834 833 833 831 830 829 828 827 825 824 823 822 821 820
845 846 847 848 849 850 851 852 853 853 854 855 856 856 856 856 856 857 857 857 858 858 858 858 858 858 859 859 859 859 859 859 859 859 859 859 859 859 859 859 859 859 859 859 859 858 857 857 856 855 854 854 853 852 852 851 850 849 848 848 847 845 844 843 842 840 839 838 836 836 835 833 833 832 831 830 828 827 826 825 823 822 821 820 819
843 845 846 847 848 849 850 851 852 852 853 853 854 855 855 855 855 856 856 856 857 857 857 858 857 858 858 858 858 858 858 858 858 858 858 858 858 858 858 858 859 859 858 858 858 857 856 856 855 855 854 853 852 852 851 850 849 848 848 847 846 845 844 842 841 840 838 837 836 835 833 832 832 831 830 829 827 826 825 824 823 821 820 819 818
842 843 845 846 847 848 849 850 850 851 852 852 853 854 854 854 854 855 856 855 856 856 856 857 857 857 857 857 857 857 857 857 857 857 858 857 857 857 857 857 858 858 858 858 857 857 856 855 854 854 853 853 852 851 850 849 849 848 847 846 845 844 843 842 840 839 837 836 835 834 832 832 831 830 828 828 827 825 824 823 822 820 819 818 817
841 842 844 845 846 846 848 849 849 850 851 851 852 853 853 853 853 854 854 855 855 855 856 856 856 856 856 856 856 856 856 856 856 857 857 857 857 857 857 857 857 857 857 856 856 856 855 854 854 854 853 852 851 850 849 848 847 847 845 844 844 843 841 840 839 838 837 835 834 833 832 831 830 828 827 827 825 824 823 822 821 819 818 818 817
840 841 842 843 844 845 846 847 848 849 850 850 851 852 852 852 852 853 853 853 854 854 855 855 855 855 856 856 856 856 856 856 856 856 856 856 856 856 856 856 856 856 856 856 855 855 854 854 853 853 852 851 849 848 848 847 846 845 844 843 842 840 839 838 838 837 836 835 834 832 831 830 828 827 826 825 824 823 822 820 819 818 817 817 816
838 840 841 842 843 844 845 846 847 848 848 849 850 851 851 851 851 852 852 852 853 854 854 854 855 855 855 855 855 855 855 855 855 855 855 855 856 856 856 856 855 855 855 855 855 854 854 853 852 851 850 849 849 848 847 846 845 843 842 841 840 839 838 837 837 836 835 834 833 832 830 828 827 826 825 824 823 822 821 819 818 817 816 815 815
836 838 839 841 842 842 844 845 846 846 847 848 849 850 851 851 851 851 851 852 853 853 854 854 854 854 854 854 854 854 854 854 854 854 854 854 855 855 855 854 854 854 854 854 854 854 853 853 852 851 850 849 848 847 846 845 843 842 841 840 838 838 837 836 835 835 834 833 832 830 829 827 826 825 824 823 822 821 819 817 816 815 814 813 813
835 836 837 839 840 841 842 843 844 845 846 847 848 849 850 850 850 850 851 851 851 852 853 853 853 853 852 852 852 852 852 852 852 853 853 853 853 853 853 853 853 853 853 853 853 853 853 852 851 850 850 849 847 846 845 843 842 841 840 839 838 837 836 835 834 833 832 831 830 829 828 826 825 824 822 821 820 819 817 815 813 812 812 811 811
833 834 835 837 839 839 840 842 843 844 845 846 846 847 848 849 849 850 850 850 850 851 852 852 851 851 851 851 851 851 851 851 850 851 851 852 852 852 852 852 852 852 852 852 852 852 852 851 851 850 849 848 847 845 844 843 842 841 840 839 837 836 835 833 832 832 831 830 829 827 826 825 823 821 820 819 817 817 815 813 811 810 810 810 809
831 832 833 835 837 838 839 840 842 843 844 844 845 846 847 848 848 849 849 849 849 850 850 850 850 850 850 850 850 850 850 850 849 849 850 850 850 850 851 851 851 851 851 851 851 851 851 850 849 849 848 847 846 845 844 842 842 840 839 838 837 835 835 833 830 830 830 829 827 825 824 823 822 819 818 817 815 815 814 811 810 809 809 808 808
830 832 833 835 837 838 839 839 840 842 842 843 843 844 845 846 847 848 848 848 848 848 849 849 849 848 848 848 848 848 848 847 847 847 848 848 848 849 849 849 849 850 850 850 850 850 849 849 848 848 847 846 845 845 843 842 841 840 838 838 837 835 834 833 830 828 828 828 826 823 820 820 820 818 816 815 814 813 812 811 810 809 808 807 807
829 831 832 834 836 838 838 838 838 840 841 841 842 843 844 844 845 846 847 847 847 847 847 847 847 847 847 847 847 846 846 846 847 847 846 847 847 847 847 847 847 848 848 848 848 848 848 848 847 847 846 845 844 843 843 842 840 839 838 837 836 835 833 832 830 827 826 827 825 822 818 817 817 816 814 813 812 811 811 810 809 808 807 806 806
828 829 830 831 833 835 836 836 837 839 839 840 840 842 842 843 844 844 845 846 845 845 845 845 845 845 845 846 846 845 845 846 846 846 845 845 845 845 845 845 845 846 846 846 846 846 846 846 845 844 843 843 842 841 841 840 839 838 837 836 835 834 833 831 829 827 825 825 824 821 816 815 816 815 813 812 811 809 809 808 807 807 806 805 805
827 828 829 830 831 832 833 834 836 836 836 838 839 839 840 841 842 842 843 844 844 844 844 844 844 844 844 845 845 844 845 845 845 844 844 844 844 844 844 844 844 844 844 844 844 844 843 843 842 840 840 840 840 839 839 839 838 837 836 835 834 833 831 830 828 826 824 824 823 820 815 813 814 813 811 810 809 808 808 807 806 806 805 804 803
827 827 828 829 830 831 831 832 833 833 834 836 838 837 837 837 839 841 842 843 843 843 843 843 843 844 843 843 843 843 843 843 843 843 843 843 843 843 843 842 842 842 842 842 842 841 841 840 839 838 838 839 839 838 838 837 836 835 834 833 832 831 829 828 825 824 822 822 822 819 815 813 813 812 810 809 809 807 806 806 805 804 804 803 802
825 826 827 828 829 829 829 830 831 832 833 834 835 836 835 836 838 840 841 842 842 842 842 843 843 842 842 841 841 841 841 842 842 842 842 842 842 841 842 842 842 842 841 841 841 840 839 839 838 838 837 838 837 837 836 836 834 833 832 831 830 829 828 826 824 823 822 822 821 820 816 814 813 811 809 808 807 806 805 804 803 803 802 801 800
823 824 825 826 826 827 827 828 829 831 832 834 834 834 835 836 838 839 840 841 841 841 841 841 841 840 840 840 840 840 840 840 840 840 840 840 840 840 840 840 841 841 840 840 840 839 838 837 837 837 836 836 836 835 834 833 832 832 830 829 828 828 828 826 824 823 822 822 822 820 817 814 813 812 809 807 806 805 803 802 802 801 801 800 799
821 822 823 823 824 825 826 827 828 830 831 833 833 833 834 835 836 837 839 839 839 839 839 839 839 839 839 838 838 839 839 838 838 838 838 838 839 839 839 839 840 839 839 839 838 837 836 835 834 834 834 833 833 832 832 831 831 830 829 828 827 827 827 827 826 824 822 822 821 820 817 815 813 812 810 806 804 803 802 801 800 799 799 798 797
820 820 821 821 823 824 825 826 828 829 829 830 832 833 834 833 834 836 837 838 838 838 837 837 837 837 837 837 837 837 837 836 836 836 836 836 837 838 838 838 838 838 838 837 836 835 834 834 833 832 831 831 830 830 829 829 829 828 827 826 826 826 826 825 825 824 822 821 820 820 817 815 813 812 810 807 803 800 799 799 798 797 796 796 794